Wind_Speed
37 37 36 36 38 40 43 43 41 37 37 35 35 37 39 40 39 37 37 37 36 36 36 37 39 40 40 39 40 39 39 39 40 40 40 41 42 42 42 42 43 44 44
42 41 40 39 39 40 44 46 45 42 40 38 38 40 40 39 38 38 39 38 37 37 37 38 39 40 40 40 40 40 39 40 41 42 43 44 45 45 46 46 46 46 47
46 46 46 44 43 42 44 46 47 46 45 43 42 42 40 39 39 40 40 40 39 39 38 38 39 40 40 40 40 40 40 41 43 44 46 47 48 47 47 47 47 48 49
51 52 51 50 49 47 46 46 47 49 48 47 45 43 41 41 41 42 42 41 40 39 38 38 39 40 40 41 41 41 42 43 44 46 48 49 50 49 48 47 48 49 50
58 58 57 56 54 52 51 49 49 50 50 48 47 46 44 43 43 43 41 40 40 38 38 38 39 40 41 41 42 43 44 46 47 48 49 50 50 49 49 48 49 51 52
65 64 63 63 60 57 55 53 52 51 49 49 48 47 46 44 44 43 42 41 40 39 38 38 39 40 40 41 43 44 46 48 49 50 50 50 49 50 51 51 51 51 52
68 68 67 66 64 62 60 57 55 52 49 49 48 47 47 45 44 43 43 41 40 39 39 39 40 40 41 41 43 45 46 47 48 49 49 50 50 52 53 54 54 53 53
64 66 67 67 66 64 62 60 57 53 50 49 48 48 47 45 44 43 42 40 40 39 39 40 40 41 41 42 43 45 46 47 47 48 49 51 52 54 55 56 56 56 57
56 58 60 61 62 63 62 60 58 55 52 50 49 48 46 45 44 43 41 40 40 40 40 40 40 40 41 42 44 44 45 46 47 49 51 52 54 54 55 57 59 62 63
49 50 51 53 55 59 60 59 58 55 52 50 49 47 45 45 44 41 40 39 40 40 40 39 39 39 41 42 43 44 45 48 49 51 52 54 55 56 57 60 63 65 67
45 44 43 44 48 53 56 57 56 54 52 49 47 45 44 44 42 40 39 39 39 39 38 37 38 39 40 42 43 45 47 49 51 52 54 55 56 58 61 64 65 67 68
42 41 39 39 43 48 52 54 54 52 49 46 44 43 43 43 40 39 38 38 38 38 37 37 38 39 40 42 44 46 49 50 52 54 56 57 59 62 64 65 66 67 68
39 39 36 36 39 43 48 50 51 48 45 42 42 42 42 40 38 37 36 36 37 37 36 37 38 39 41 43 46 49 50 52 54 56 58 61 63 64 65 66 67 68 70
35 34 31 31 35 40 43 45 45 42 40 40 40 41 40 37 36 35 35 35 36 36 37 38 38 40 43 46 48 50 52 54 57 59 61 63 64 65 66 66 68 70 73
26 24 24 25 31 36 39 40 39 38 38 38 37 37 35 34 33 33 33 34 35 36 37 39 41 43 45 47 49 51 53 56 59 61 62 64 64 65 66 68 71 74 78
13 14 17 22 28 32 34 35 35 35 34 33 32 31 31 31 30 31 32 32 34 36 39 41 43 45 46 48 50 52 56 58 60 61 62 62 63 65 68 71 75 79 84
4 10 16 21 25 28 31 31 31 30 29 28 27 27 27 28 28 30 30 33 35 37 41 44 44 45 46 48 52 55 57 58 59 60 61 62 64 68 71 74 79 85 92
10 14 18 21 23 26 27 27 26 25 24 23 23 25 28 30 30 31 32 34 36 39 41 43 43 44 47 51 53 55 56 57 58 59 61 64 67 71 75 80 85 91 96
16 18 20 21 22 23 23 22 22 22 22 22 23 26 28 28 29 31 33 35 37 39 40 41 43 46 49 51 53 54 55 56 58 61 64 68 71 76 81 86 91 93 91
18 19 19 19 19 19 19 19 19 20 21 23 25 27 29 30 31 30 32 34 35 37 39 41 44 47 49 51 52 53 54 57 60 64 68 73 77 82 88 92 92 87 77
15 17 17 17 17 16 16 17 18 21 24 25 26 26 25 25 25 27 30 32 34 37 40 43 45 47 49 50 51 53 56 58 62 67 72 77 82 88 91 90 83 72 61
11 11 12 14 16 16 17 17 18 18 19 19 18 18 19 21 23 26 29 33 36 39 41 43 45 47 48 49 51 55 58 62 66 71 76 82 87 89 86 77 66 55 46
9 7 7 8 10 10 11 11 12 12 12 13 15 16 19 21 24 28 32 35 37 39 41 43 44 46 48 50 54 58 62 66 71 76 83 87 87 81 71 59 48 41 39
8 7 6 6 5 5 4 4 5 6 9 12 14 17 20 24 28 31 34 36 38 39 41 42 44 46 50 53 57 61 66 71 76 82 85 83 76 65 52 41 36 35 35
4 4 4 4 3 2 0 2 5 8 10 13 16 20 24 28 30 32 34 36 38 40 41 43 45 48 52 56 60 65 70 76 81 82 78 69 57 45 35 31 31 32 34
1 2 1 1 0 2 4 6 8 10 13 17 20 24 27 29 31 33 35 37 38 40 41 44 48 51 55 59 64 70 76 81 80 74 63 51 39 29 26 27 29 32 34
Wind_Direction
255 255 254 252 250 249 251 254 257 256 256 257 260 262 264 265 266 269 271 273 275 278 280 281 280 281 281 281 283 284 283 281 281 281 282 284 287 287 288 289 290 290 291
257 258 257 255 252 250 250 251 254 254 255 257 257 259 261 265 269 271 272 273 275 277 279 281 282 282 281 280 281 283 283 283 282 283 284 286 287 288 289 289 289 290 291
256 256 257 256 254 252 250 250 250 252 253 254 256 258 262 266 268 270 272 273 274 276 280 283 283 283 281 279 280 282 283 283 283 284 286 287 287 288 288 289 290 292 293
256 256 256 256 255 254 252 251 249 249 250 252 255 258 260 263 265 268 271 273 275 277 280 281 281 281 280 279 280 282 283 283 284 285 287 288 289 289 290 292 293 294 294
258 256 255 254 254 253 252 251 250 249 249 250 252 255 257 259 262 266 270 272 274 275 277 279 280 280 280 281 281 283 284 285 286 287 287 288 289 290 291 293 293 294 294
262 258 255 253 252 251 251 250 249 249 249 249 250 252 254 257 260 264 267 269 271 274 276 278 280 281 281 282 283 285 286 287 288 289 290 290 291 292 293 293 293 293 294
270 265 260 255 251 249 248 248 248 247 247 247 248 250 252 254 257 261 264 267 269 271 274 277 279 281 282 283 285 287 289 290 290 291 292 293 293 294 295 294 294 294 295
273 269 265 258 251 247 244 244 245 245 244 244 245 246 249 251 254 257 261 264 266 270 273 276 279 282 284 286 288 289 290 291 292 293 294 295 295 296 296 296 296 296 297
277 271 267 260 251 245 241 240 240 240 240 240 241 243 246 248 250 254 257 260 264 268 272 276 281 284 287 288 289 290 291 293 294 294 295 295 296 296 296 297 298 299 299
278 272 267 260 249 241 236 235 235 235 235 236 238 241 243 245 248 251 255 259 263 267 272 278 282 286 288 289 290 292 294 295 295 295 296 297 297 298 299 299 300 300 301
275 270 264 255 243 234 230 229 229 230 230 232 234 237 240 243 246 250 254 258 263 268 274 279 283 286 288 290 293 294 295 296 296 296 297 298 299 300 300 301 302 303 303
271 265 260 251 239 230 223 222 222 223 225 228 231 234 238 242 245 250 254 259 264 270 275 280 284 286 289 293 294 295 296 296 296 298 299 300 301 301 302 303 304 304 305
267 263 259 250 238 227 218 214 215 217 220 222 227 232 236 240 245 251 256 261 266 271 276 281 284 288 292 294 294 295 295 296 297 299 300 301 302 303 304 305 306 306 306
269 265 257 246 232 221 211 205 207 210 213 218 224 230 235 240 246 252 258 262 267 273 278 282 286 290 292 292 293 294 295 297 299 301 302 303 304 305 306 307 307 307 308
271 261 249 233 219 210 200 196 199 203 209 216 222 229 235 242 249 255 260 265 270 275 280 284 286 289 290 291 292 294 296 298 300 302 303 304 306 307 307 308 308 308 308
266 243 226 210 201 195 190 190 194 201 208 215 222 230 237 244 251 257 261 268 274 278 282 284 285 288 290 292 294 295 297 299 301 303 304 306 307 307 308 309 309 309 309
204 189 186 182 181 182 183 186 191 199 207 214 223 231 238 245 250 257 263 271 276 279 282 284 287 290 292 294 295 297 299 301 303 304 305 306 307 308 309 310 310 310 310
124 144 153 160 167 173 178 182 189 197 205 214 223 232 239 242 248 258 266 271 275 280 284 287 290 292 293 295 297 300 302 303 304 305 306 307 308 309 309 310 310 310 310
113 128 140 150 159 166 172 179 188 195 204 214 224 234 239 245 254 262 269 275 281 286 288 290 292 294 296 298 300 302 304 305 306 307 308 309 310 310 310 310 311 311 311
106 120 131 141 150 158 166 176 187 196 207 217 228 235 242 250 259 269 278 284 287 289 291 292 294 296 298 301 302 304 305 307 308 310 311 311 311 311 311 311 311 312 312
99 116 127 137 144 153 167 180 195 206 215 222 230 242 254 267 276 283 285 287 289 291 293 295 297 299 302 304 305 306 308 309 310 311 311 311 312 312 312 312 313 313 313
91 111 129 146 159 169 181 193 206 216 226 239 253 266 277 283 285 287 289 291 293 295 296 298 300 302 304 306 307 309 310 311 311 312 312 313 313 313 313 314 314 315 315
82 105 130 154 169 184 196 211 227 242 256 270 279 283 285 286 288 290 292 294 296 298 300 302 304 305 307 308 310 311 312 312 312 313 314 314 314 315 315 315 316 318 319
68 81 96 116 132 147 170 207 239 259 269 275 279 283 286 289 292 294 296 298 299 301 303 305 306 308 309 311 312 313 313 313 314 315 315 315 316 316 316 318 321 324 325
59 73 82 93 100 103 208 273 276 276 278 281 285 288 291 294 296 298 299 301 303 305 306 307 308 310 311 312 313 313 314 315 316 316 316 316 317 318 321 324 328 330 330
100 103 108 116 274 280 279 282 282 282 285 288 291 294 296 298 300 301 303 304 305 307 308 309 310 311 312 313 314 315 316 317 318 318 318 319 320 322 326 330 333 335 336
Height
5735 5737 5740 5743 5745 5747 5748 5749 5751 5755 5757 5759 5761 5762 5762 5763 5765 5767 5769 5769 5770 5770 5769 5769 5768 5767 5767 5766 5765 5764 5762 5762 5761 5761 5760 5758 5756 5754 5752 5750 5747 5745 5743
5726 5728 5730 5733 5735 5738 5739 5741 5743 5746 5749 5752 5754 5754 5754 5756 5758 5760 5761 5762 5762 5762 5762 5761 5760 5760 5759 5758 5757 5756 5755 5753 5752 5751 5750 5749 5748 5745 5741 5739 5736 5733 5731
5716 5717 5719 5721 5725 5727 5729 5732 5734 5736 5739 5742 5744 5745 5748 5749 5751 5752 5753 5753 5754 5754 5755 5754 5753 5752 5751 5750 5749 5748 5747 5745 5743 5741 5740 5738 5736 5735 5732 5728 5724 5721 5718
5703 5705 5706 5709 5712 5716 5719 5721 5723 5725 5728 5732 5735 5738 5740 5742 5743 5743 5744 5745 5746 5746 5747 5746 5745 5744 5743 5742 5741 5739 5738 5736 5735 5732 5729 5727 5724 5722 5720 5717 5713 5709 5705
5689 5690 5692 5695 5699 5702 5706 5709 5712 5715 5718 5722 5725 5729 5731 5733 5734 5735 5736 5737 5737 5738 5738 5738 5737 5736 5735 5734 5732 5730 5728 5726 5725 5722 5719 5716 5713 5709 5707 5705 5702 5697 5693
5669 5672 5675 5679 5683 5687 5691 5695 5699 5703 5707 5712 5715 5719 5722 5724 5726 5727 5727 5728 5729 5730 5730 5729 5729 5728 5726 5725 5723 5721 5719 5716 5714 5711 5707 5704 5701 5697 5694 5692 5689 5686 5681
5647 5649 5654 5660 5666 5671 5675 5680 5685 5691 5696 5700 5704 5708 5712 5715 5717 5718 5719 5720 5721 5722 5722 5721 5720 5719 5717 5715 5713 5711 5709 5706 5703 5699 5696 5692 5688 5685 5681 5677 5674 5672 5668
5624 5625 5630 5637 5645 5652 5658 5665 5671 5677 5683 5688 5693 5697 5701 5706 5708 5709 5710 5712 5713 5713 5713 5713 5712 5710 5709 5707 5705 5702 5699 5696 5692 5689 5685 5681 5676 5672 5667 5663 5659 5656 5654
5603 5604 5608 5614 5622 5631 5640 5648 5656 5663 5670 5675 5681 5685 5691 5696 5698 5700 5702 5704 5705 5705 5704 5704 5703 5702 5700 5698 5696 5693 5689 5686 5682 5678 5673 5669 5665 5660 5655 5649 5643 5639 5635
5585 5585 5589 5594 5601 5610 5620 5631 5640 5648 5656 5663 5669 5675 5681 5685 5688 5691 5693 5695 5696 5696 5696 5696 5695 5693 5692 5689 5686 5683 5679 5676 5671 5667 5662 5657 5651 5646 5641 5635 5629 5622 5616
5571 5571 5573 5577 5582 5591 5602 5614 5624 5634 5643 5652 5659 5666 5671 5675 5679 5682 5685 5686 5687 5688 5688 5687 5686 5685 5682 5680 5677 5673 5669 5664 5660 5655 5650 5645 5639 5633 5626 5620 5613 5605 5597
5559 5558 5560 5563 5568 5575 5586 5599 5611 5622 5633 5643 5650 5656 5662 5666 5671 5674 5676 5678 5679 5679 5679 5679 5677 5675 5673 5670 5667 5663 5658 5653 5648 5643 5637 5631 5625 5619 5611 5604 5596 5588 5580
5547 5547 5549 5553 5557 5564 5574 5586 5600 5613 5625 5634 5641 5647 5653 5658 5663 5666 5668 5670 5671 5671 5671 5670 5668 5666 5663 5660 5656 5652 5647 5641 5636 5630 5624 5618 5611 5603 5595 5587 5579 5570 5561
5536 5537 5540 5544 5549 5557 5567 5580 5594 5607 5617 5626 5633 5640 5646 5652 5656 5659 5661 5662 5663 5663 5663 5661 5659 5656 5653 5650 5645 5641 5635 5629 5623 5617 5610 5603 5595 5587 5579 5571 5561 5552 5543
5528 5529 5533 5538 5544 5553 5565 5578 5591 5601 5611 5619 5627 5634 5641 5646 5650 5652 5654 5655 5655 5655 5654 5652 5650 5647 5643 5639 5634 5629 5624 5618 5611 5604 5596 5588 5580 5571 5563 5554 5544 5534 5524
5524 5526 5530 5536 5544 5554 5566 5577 5588 5598 5607 5616 5624 5631 5636 5640 5643 5645 5647 5648 5648 5647 5645 5643 5640 5637 5632 5628 5623 5618 5612 5605 5598 5591 5582 5574 5565 5556 5547 5537 5526 5514 5502
5526 5528 5533 5540 5548 5558 5568 5578 5588 5597 5606 5614 5621 5627 5631 5634 5636 5638 5640 5640 5640 5638 5636 5634 5630 5627 5622 5617 5612 5606 5600 5592 5585 5576 5568 5560 5550 5540 5531 5521 5509 5495 5479
5533 5536 5540 5547 5555 5563 5572 5580 5589 5598 5605 5612 5617 5621 5624 5627 5630 5632 5633 5632 5631 5629 5627 5624 5620 5616 5612 5606 5600 5594 5587 5579 5571 5562 5553 5544 5534 5524 5514 5504 5491 5476 5459
5542 5545 5549 5555 5561 5569 5576 5584 5591 5598 5604 5609 5614 5617 5621 5623 5625 5626 5626 5624 5622 5620 5617 5614 5610 5606 5601 5595 5588 5581 5573 5565 5557 5548 5538 5528 5518 5507 5496 5485 5472 5456 5439
5553 5555 5558 5563 5568 5574 5580 5586 5592 5597 5603 5607 5611 5614 5617 5618 5619 5618 5617 5616 5614 5611 5608 5604 5600 5595 5589 5583 5576 5568 5561 5553 5544 5534 5522 5511 5500 5488 5474 5462 5449 5435 5420
5563 5564 5566 5570 5574 5578 5583 5588 5592 5597 5601 5605 5608 5610 5611 5611 5611 5611 5610 5609 5606 5603 5600 5595 5590 5584 5577 5570 5563 5556 5548 5539 5530 5519 5508 5495 5482 5468 5454 5439 5426 5413 5403
5571 5572 5573 5575 5578 5582 5585 5589 5593 5596 5599 5601 5603 5604 5606 5606 5606 5605 5604 5602 5598 5595 5590 5584 5578 5572 5566 5559 5551 5543 5534 5525 5515 5504 5491 5477 5463 5448 5433 5419 5408 5398 5390
5579 5579 5580 5581 5584 5586 5589 5592 5594 5596 5598 5599 5600 5601 5602 5602 5601 5600 5597 5594 5590 5585 5580 5574 5568 5561 5554 5547 5539 5530 5520 5509 5498 5486 5471 5457 5442 5428 5415 5404 5396 5388 5381
5584 5584 5585 5586 5588 5589 5591 5593 5595 5596 5598 5599 5599 5599 5599 5598 5595 5592 5589 5584 5580 5575 5569 5564 5557 5550 5543 5535 5526 5516 5505 5494 5481 5467 5451 5436 5423 5412 5402 5395 5388 5381 5374
5587 5587 5588 5589 5590 5591 5592 5594 5595 5596 5596 5596 5596 5595 5593 5591 5587 5584 5580 5575 5570 5565 5560 5553 5547 5539 5531 5522 5512 5501 5490 5477 5464 5449 5434 5420 5409 5401 5394 5388 5382 5376 5369
5588 5589 5589 5590 5591 5592 5592 5593 5593 5593 5593 5592 5591 5589 5586 5583 5579 5575 5571 5566 5561 5555 5549 5542 5535 5527 5518 5508 5498 5485 5472 5458 5444 5430 5418 5408 5400 5394 5389 5384 5378 5371 5364